Date String (YYYY-MM-DD hh:mm:ss) UTC,Instrument flags,Ambient pressure (hPa),Sample flow (lpm),Bypass flow (lpm),Sample temperature (°C),Ambient temperature (°C),ASC tube jacket temperature (°C),LED temperature (°C),Box temperature (°C),Sample RH (%),Span deviation,Mass concentration (μg/m³),Mass concentration (μg/m³),Mass concentration (μg/m³)
DateTimeUTC,F1_M11,P_M11,Q1_M11,Q2_M11,T1_M11,T2_M11,T3_M11,T4_M11,T5_M11,U1_M11,ZSPAN_M11,X0_M11,X2_M11,X1_M11
2022-02-23 16:00:00,,0827.0,5.00,0.00,22.5,21.5,00.0,31.4,24.1,03.0,0000.0,0004.96,0003.33,0002.99
2022-02-23 16:01:00,,0827.0,5.01,0.00,22.4,21.2,00.0,31.4,23.9,03.0,0000.0,0004.96,0003.33,0003.00
2022-02-23 16:02:00,,0827.0,5.00,0.00,22.3,21.3,00.0,31.4,23.9,03.1,0000.0,0004.95,0003.33,0002.99
2022-02-23 16:03:00,,0827.0,4.99,0.00,22.4,22.2,00.0,31.4,24.1,03.0,0000.0,0004.90,0003.31,0002.98
2022-02-23 16:04:00,,0827.0,5.00,0.00,22.6,23.0,00.0,31.5,24.4,03.0,0000.0,0005.06,0003.32,0002.98
2022-02-23 16:05:00,,0827.1,5.00,0.00,22.6,23.0,00.0,31.5,24.5,03.1,0000.0,0005.15,0003.32,0002.99
2022-02-23 16:06:00,,0827.1,5.01,0.00,22.6,22.6,00.0,31.5,24.4,03.1,0000.0,0005.16,0003.32,0002.98
2022-02-23 16:07:00,,0827.0,5.01,0.00,22.6,22.2,00.0,31.5,24.3,03.1,0000.0,0005.39,0003.32,0002.97
2022-02-23 16:08:00,,0827.0,5.00,0.00,22.5,21.8,00.0,31.4,24.2,03.1,0000.0,0005.94,0003.34,0002.98
2022-02-23 16:09:00,,0827.0,5.00,0.00,22.4,21.5,00.0,31.4,24.0,03.2,0000.0,0005.82,0003.33,0002.98
2022-02-23 16:10:00,,0827.0,5.00,0.00,22.4,21.6,00.0,31.4,24.0,03.2,0000.0,0005.75,0003.34,0003.01
2022-02-23 16:11:00,,0827.0,5.00,0.00,22.5,22.4,00.0,31.4,24.2,03.1,0000.0,0005.72,0003.33,0003.02
2022-02-23 16:12:00,,0827.0,5.01,0.00,22.6,23.1,00.0,31.5,24.4,03.1,0000.0,0005.80,0003.35,0003.03
2022-02-23 16:13:00,,0827.0,5.00,0.00,22.7,23.2,00.0,31.5,24.5,03.1,0000.0,0005.71,0003.34,0003.04
2022-02-23 16:14:00,,0826.9,4.99,0.00,22.7,22.7,00.0,31.5,24.5,03.1,0000.0,0005.73,0003.35,0003.06
2022-02-23 16:15:00,,0826.9,5.00,0.00,22.6,22.2,00.0,31.5,24.3,03.1,0000.0,0005.66,0003.37,0003.07
2022-02-23 16:16:00,,0826.9,5.00,0.00,22.6,21.9,00.0,31.5,24.2,03.1,0000.0,0005.53,0003.36,0003.07
2022-02-23 16:17:00,,0826.9,5.01,0.00,22.5,21.5,00.0,31.5,24.1,03.1,0000.0,0005.76,0003.37,0003.09
2022-02-23 16:18:00,,0827.0,4.99,0.00,22.4,21.6,00.0,31.4,24.0,03.1,0000.0,0005.97,0003.39,0003.10
2022-02-23 16:19:00,,0826.9,4.99,0.00,22.5,22.5,00.0,31.5,24.2,03.1,0000.0,0005.54,0003.38,0003.09
2022-02-23 16:20:00,,0826.8,5.02,0.00,22.7,23.2,00.0,31.5,24.5,03.1,0000.0,0005.26,0003.38,0003.09
2022-02-23 16:21:00,,0826.9,5.00,0.00,22.7,23.2,00.0,31.5,24.6,03.1,0000.0,0005.40,0003.38,0003.07
2022-02-23 16:22:00,,0826.8,4.98,0.00,22.7,22.7,00.0,31.5,24.5,03.1,0000.0,0005.52,0003.37,0003.06
2022-02-23 16:23:00,,0826.8,5.01,0.00,22.6,22.2,00.0,31.5,24.3,03.1,0000.0,0005.61,0003.38,0003.04
2022-02-23 16:24:00,,0826.8,5.00,0.00,22.6,21.8,00.0,31.5,24.2,03.1,0000.0,0005.82,0003.41,0003.03
2022-02-23 16:25:00,,0826.8,5.00,0.00,22.5,21.4,00.0,31.5,24.0,03.1,0000.0,0005.95,0003.43,0003.02
2022-02-23 16:26:00,,0826.8,5.01,0.00,22.4,21.2,00.0,31.5,23.9,03.2,0000.0,0005.96,0003.42,0003.01
2022-02-23 16:27:00,,0826.8,4.99,0.00,22.4,21.8,00.0,31.5,24.0,03.2,0000.0,0005.94,0003.43,0002.99
2022-02-23 16:28:00,,0826.8,5.02,0.00,22.5,22.7,00.0,31.5,24.3,03.1,0000.0,0005.71,0003.41,0002.97
2022-02-23 16:29:00,,0826.8,5.00,0.00,22.6,23.3,00.0,31.5,24.5,03.1,0000.0,0005.22,0003.39,0002.97
2022-02-23 16:30:00,,0826.8,4.99,0.00,22.7,23.0,00.0,31.5,24.5,03.1,0000.0,0005.02,0003.37,0002.97
2022-02-23 16:31:00,,0826.8,5.01,0.00,22.6,22.4,00.0,31.5,24.3,03.1,0000.0,0005.01,0003.36,0002.97
2022-02-23 16:32:00,,0826.7,4.99,0.00,22.5,22.0,00.0,31.5,24.2,03.1,0000.0,0004.89,0003.35,0002.98
2022-02-23 16:33:00,,0826.8,5.01,0.00,22.5,21.7,00.0,31.5,24.1,03.1,0000.0,0004.80,0003.35,0002.98
2022-02-23 16:34:00,,0826.7,4.99,0.00,22.4,21.4,00.0,31.5,24.0,03.1,0000.0,0004.78,0003.36,0002.99
2022-02-23 16:35:00,,0826.7,5.00,0.00,22.4,22.1,00.0,31.5,24.0,03.2,0000.0,0005.07,0003.35,0003.01
2022-02-23 16:36:00,,0826.6,5.00,0.00,22.5,23.0,00.0,31.5,24.3,03.1,0000.0,0005.55,0003.34,0003.01
2022-02-23 16:37:00,,0826.7,5.01,0.00,22.7,23.6,00.0,31.5,24.6,03.1,0000.0,0006.34,0003.33,0003.00
2022-02-23 16:38:00,,0826.7,5.00,0.00,22.7,23.3,00.0,31.6,24.6,03.0,0000.0,0006.86,0003.34,0003.03
2022-02-23 16:39:00,,0826.6,4.99,0.00,22.7,22.8,00.0,31.6,24.5,03.0,0000.0,0006.77,0003.33,0003.04
2022-02-23 16:40:00,,0826.6,5.01,0.00,22.7,22.4,00.0,31.6,24.3,03.0,0000.0,0007.13,0003.33,0003.04
2022-02-23 16:41:00,,0826.6,4.99,0.00,22.6,21.9,00.0,31.5,24.2,03.0,0000.0,0007.48,0003.37,0003.07
2022-02-23 16:42:00,,0826.5,5.00,0.00,22.5,21.6,00.0,31.5,24.1,03.0,0000.0,0007.47,0003.38,0003.08
2022-02-23 16:43:00,,0826.5,5.01,0.00,22.5,21.7,00.0,31.5,24.1,03.0,0000.0,0007.52,0003.41,0003.08
2022-02-23 16:44:00,,0826.5,4.99,0.00,22.6,22.7,00.0,31.6,24.3,03.0,0000.0,0007.52,0003.41,0003.08
2022-02-23 16:45:00,,0826.5,5.00,0.00,22.7,23.5,00.0,31.6,24.6,03.0,0000.0,0007.48,0003.39,0003.07
2022-02-23 16:46:00,,0826.5,5.00,0.00,22.9,23.7,00.0,31.6,24.8,02.9,0000.0,0007.18,0003.39,0003.06
2022-02-23 16:47:00,,0826.5,5.00,0.00,22.9,23.3,00.0,31.7,24.7,02.9,0000.0,0007.18,0003.39,0003.06
2022-02-23 16:48:00,,0826.5,5.00,0.00,22.8,22.9,00.0,31.7,24.5,02.9,0000.0,0006.37,0003.39,0003.07
2022-02-23 16:49:00,,0826.4,5.00,0.00,22.8,22.5,00.0,31.7,24.4,02.9,0000.0,0006.48,0003.37,0003.06
2022-02-23 16:50:00,,0826.4,4.99,0.00,22.7,22.3,00.0,31.6,24.3,02.9,0000.0,0007.38,0003.40,0003.07
2022-02-23 16:51:00,,0826.3,5.01,0.00,22.6,21.9,00.0,31.6,24.2,02.8,0000.0,0007.01,0003.41,0003.08
2022-02-23 16:52:00,,0826.3,4.99,0.00,22.6,21.6,00.0,31.6,24.1,02.8,0000.0,0006.67,0003.38,0003.07
2022-02-23 16:53:00,,0826.3,5.00,0.00,22.6,22.1,00.0,31.6,24.2,02.9,0000.0,0006.69,0003.39,0003.09
2022-02-23 16:54:00,,0826.4,5.00,0.00,22.7,23.0,00.0,31.6,24.5,02.9,0000.0,0006.80,0003.40,0003.11
2022-02-23 16:55:00,,0826.4,5.00,0.00,22.8,23.6,00.0,31.7,24.7,02.8,0000.0,0007.07,0003.43,0003.12
2022-02-23 16:56:00,,0826.3,5.00,0.00,22.9,23.4,00.0,31.7,24.7,02.8,0000.0,0007.82,0003.44,0003.12
2022-02-23 16:57:00,,0826.2,4.99,0.00,22.8,23.0,00.0,31.7,24.6,02.8,0000.0,0007.83,0003.43,0003.13
2022-02-23 16:58:00,,0826.2,5.01,0.00,22.8,22.6,00.0,31.7,24.4,02.9,0000.0,0007.67,0003.45,0003.15
2022-02-23 16:59:00,,0826.2,4.99,0.00,22.7,22.2,00.0,31.7,24.3,02.9,0000.0,0007.55,0003.45,0003.16
